Time,TemperatureF,DewpointF,PressureIn,WindDirection,WindDirectionDegrees,WindSpeedMPH,WindSpeedGustMPH,Humidity,HourlyPrecipIn,Conditions,Clouds,dailyrainin,SoftwareType,DateUTC
2013-02-21 00:04:00,15.9,13.0,30.40,NNE,19,3.0,7.0,89,0.00,,,0.00,weatherlink.com 1.10,2013-02-21 06:04:00,
2013-02-21 00:19:00,15.8,13.0,30.40,NNE,19,3.0,5.0,89,0.00,,,0.00,weatherlink.com 1.10,2013-02-21 06:19:00,
2013-02-21 00:34:00,15.5,13.0,30.40,NNE,19,2.0,5.0,89,0.00,,,0.00,weatherlink.com 1.10,2013-02-21 06:34:00,
2013-02-21 00:49:00,15.4,13.0,30.40,NNE,19,5.0,5.0,89,0.00,,,0.00,weatherlink.com 1.10,2013-02-21 06:49:00,
2013-02-21 01:05:00,15.3,13.0,30.40,NNE,19,5.0,6.0,89,0.00,,,0.00,weatherlink.com 1.10,2013-02-21 07:05:00,
2013-02-21 01:20:00,14.9,13.0,30.39,NNE,21,3.0,5.0,90,0.00,,,0.00,weatherlink.com 1.10,2013-02-21 07:20:00,
2013-02-21 01:35:00,15.0,13.0,30.40,NNE,23,2.0,6.0,90,0.00,,,0.00,weatherlink.com 1.10,2013-02-21 07:35:00,
2013-02-21 01:50:00,15.0,13.0,30.40,NNE,23,1.0,4.0,90,0.00,,,0.00,weatherlink.com 1.10,2013-02-21 07:50:00,
2013-02-21 02:05:00,15.3,13.0,30.40,NNE,25,4.0,5.0,90,0.00,,,0.00,weatherlink.com 1.10,2013-02-21 08:05:00,
2013-02-21 02:20:00,15.4,13.0,30.39,NE,42,5.0,6.0,90,0.00,,,0.00,weatherlink.com 1.10,2013-02-21 08:20:00,
2013-02-21 02:35:00,15.7,13.0,30.38,NE,43,3.0,6.0,90,0.00,,,0.00,weatherlink.com 1.10,2013-02-21 08:35:00,
2013-02-21 02:50:00,15.6,13.0,30.38,NE,44,3.0,5.0,89,0.00,,,0.00,weatherlink.com 1.10,2013-02-21 08:50:00,
2013-02-21 03:05:00,15.7,13.0,30.38,NE,45,1.0,6.0,90,0.00,,,0.00,weatherlink.com 1.10,2013-02-21 09:05:00,
2013-02-21 03:20:00,15.8,13.0,30.38,NE,45,0.0,2.0,89,0.00,,,0.00,weatherlink.com 1.10,2013-02-21 09:20:00,
2013-02-21 03:50:00,15.3,13.0,30.39,NE,45,0.0,1.0,89,0.00,,,0.00,weatherlink.com 1.10,2013-02-21 09:50:00,
2013-02-21 04:05:00,15.0,13.0,30.40,NE,45,0.0,0.0,90,0.00,,,0.00,weatherlink.com 1.10,2013-02-21 10:05:00,
2013-02-21 04:20:00,14.7,12.0,30.39,NE,45,2.0,2.0,90,0.00,,,0.00,weatherlink.com 1.10,2013-02-21 10:20:00,
2013-02-21 04:35:00,15.1,13.0,30.40,NE,45,1.0,3.0,91,0.00,,,0.00,weatherlink.com 1.10,2013-02-21 10:35:00,
2013-02-21 04:50:00,14.3,12.0,30.39,NE,45,0.0,1.0,89,0.00,,,0.00,weatherlink.com 1.10,2013-02-21 10:50:00,
2013-02-21 05:05:00,14.3,12.0,30.39,NE,45,0.0,1.0,90,0.00,,,0.00,weatherlink.com 1.10,2013-02-21 11:05:00,
2013-02-21 05:20:00,14.4,12.0,30.38,NE,45,1.0,3.0,90,0.00,,,0.00,weatherlink.com 1.10,2013-02-21 11:20:00,
2013-02-21 05:35:00,14.9,13.0,30.37,NE,45,3.0,6.0,91,0.00,,,0.00,weatherlink.com 1.10,2013-02-21 11:35:00,
2013-02-21 05:50:00,16.5,14.0,30.38,ENE,65,2.0,7.0,90,0.00,,,0.00,weatherlink.com 1.10,2013-02-21 11:50:00,
2013-02-21 06:05:00,17.9,16.0,30.38,ENE,69,3.0,8.0,90,0.00,,,0.00,weatherlink.com 1.10,2013-02-21 12:05:00,
2013-02-21 06:20:00,19.7,17.0,30.39,ENE,78,3.0,11.0,89,0.00,,,0.00,weatherlink.com 1.10,2013-02-21 12:20:00,
2013-02-21 06:35:00,20.3,17.0,30.38,ENE,78,4.0,5.0,88,0.00,,,0.00,weatherlink.com 1.10,2013-02-21 12:35:00,
2013-02-21 06:50:00,20.6,18.0,30.38,ENE,77,2.0,7.0,88,0.00,,,0.00,weatherlink.com 1.10,2013-02-21 12:50:00,
2013-02-21 07:05:00,20.7,17.0,30.35,ENE,72,7.0,8.0,87,0.00,,,0.00,weatherlink.com 1.10,2013-02-21 13:05:00,
2013-02-21 07:20:00,20.7,18.0,30.34,ENE,72,7.0,10.0,88,0.00,,,0.00,weatherlink.com 1.10,2013-02-21 13:20:00,
2013-02-21 07:35:00,21.0,18.0,30.37,ENE,71,5.0,9.0,88,0.00,,,0.00,weatherlink.com 1.10,2013-02-21 13:35:00,
2013-02-21 07:50:00,21.4,18.0,30.36,ENE,73,7.0,10.0,88,0.00,,,0.00,weatherlink.com 1.10,2013-02-21 13:50:00,
2013-02-21 08:05:00,21.7,18.0,30.37,ENE,73,4.0,11.0,87,0.00,,,0.00,weatherlink.com 1.10,2013-02-21 14:05:00,
2013-02-21 08:20:00,22.2,19.0,30.37,ENE,71,4.0,10.0,87,0.00,,,0.00,weatherlink.com 1.10,2013-02-21 14:20:00,
2013-02-21 08:35:00,23.0,19.0,30.36,East,97,6.0,12.0,86,0.00,,,0.00,weatherlink.com 1.10,2013-02-21 14:35:00,
2013-02-21 08:50:00,23.5,20.0,30.39,East,92,5.0,11.0,85,0.00,,,0.00,weatherlink.com 1.10,2013-02-21 14:50:00,
2013-02-21 09:05:00,23.9,20.0,30.36,ENE,74,8.0,9.0,84,0.00,,,0.00,weatherlink.com 1.10,2013-02-21 15:05:00,
2013-02-21 09:20:00,24.5,20.0,30.34,ENE,75,9.0,15.0,84,0.00,,,0.00,weatherlink.com 1.10,2013-02-21 15:20:00,
2013-02-21 09:35:00,25.4,21.0,30.34,East,85,10.0,21.0,83,0.00,,,0.00,weatherlink.com 1.10,2013-02-21 15:35:00,
2013-02-21 09:50:00,26.1,21.0,30.35,East,80,8.0,15.0,82,0.00,,,0.00,weatherlink.com 1.10,2013-02-21 15:50:00,
2013-02-21 10:05:00,26.4,21.0,30.33,ENE,68,13.0,17.0,80,0.00,,,0.00,weatherlink.com 1.10,2013-02-21 16:05:00,
2013-02-21 10:20:00,26.8,22.0,30.34,East,79,14.0,19.0,81,0.00,,,0.00,weatherlink.com 1.10,2013-02-21 16:20:00,
2013-02-21 10:50:00,27.0,22.0,30.32,ENE,67,7.0,19.0,80,0.00,,,0.00,weatherlink.com 1.10,2013-02-21 16:50:00,
2013-02-21 11:20:00,27.0,22.0,30.30,ENE,75,10.0,19.0,80,0.00,,,0.00,weatherlink.com 1.10,2013-02-21 17:20:00,
2013-02-21 11:36:00,27.2,22.0,30.30,East,88,14.0,18.0,80,0.00,,,0.00,weatherlink.com 1.10,2013-02-21 17:36:00,
2013-02-21 12:06:00,27.4,22.0,30.23,ENE,76,12.0,22.0,81,0.00,,,0.00,weatherlink.com 1.10,2013-02-21 18:06:00,
2013-02-21 12:21:00,27.4,22.0,30.21,East,80,11.0,27.0,81,0.00,,,0.00,weatherlink.com 1.10,2013-02-21 18:21:00,
2013-02-21 12:36:00,27.4,22.0,30.19,NE,44,16.0,24.0,81,0.00,,,0.00,weatherlink.com 1.10,2013-02-21 18:36:00,
2013-02-21 13:06:00,27.6,23.0,30.19,East,88,16.0,23.0,81,0.00,,,0.00,weatherlink.com 1.10,2013-02-21 19:06:00,
2013-02-21 13:21:00,27.7,23.0,30.21,ENE,65,18.0,28.0,81,0.00,,,0.00,weatherlink.com 1.10,2013-02-21 19:21:00,
2013-02-21 13:36:00,28.0,23.0,30.23,ENE,59,11.0,21.0,81,0.00,,,0.00,weatherlink.com 1.10,2013-02-21 19:36:00,
2013-02-21 13:51:00,27.9,23.0,30.25,SE,128,7.0,17.0,81,0.00,,,0.00,weatherlink.com 1.10,2013-02-21 19:51:00,
2013-02-21 14:21:00,28.1,23.0,30.24,ENE,76,10.0,18.0,81,0.00,,,0.00,weatherlink.com 1.10,2013-02-21 20:21:00,
2013-02-21 14:36:00,28.0,23.0,30.22,East,92,8.0,18.0,81,0.00,,,0.00,weatherlink.com 1.10,2013-02-21 20:36:00,
2013-02-21 14:51:00,27.8,23.0,30.21,East,99,14.0,16.0,82,0.00,,,0.00,weatherlink.com 1.10,2013-02-21 20:51:00,
2013-02-21 15:06:00,27.7,23.0,30.21,East,90,14.0,18.0,81,0.00,,,0.00,weatherlink.com 1.10,2013-02-21 21:06:00,
2013-02-21 15:21:00,27.6,23.0,30.20,NE,53,12.0,19.0,82,0.00,,,0.00,weatherlink.com 1.10,2013-02-21 21:21:00,
2013-02-21 15:36:00,27.4,23.0,30.19,East,90,11.0,19.0,82,0.00,,,0.00,weatherlink.com 1.10,2013-02-21 21:36:00,
2013-02-21 15:51:00,27.1,22.0,30.17,ENE,65,15.0,24.0,82,0.00,,,0.00,weatherlink.com 1.10,2013-02-21 21:51:00,
2013-02-21 16:06:00,26.9,22.0,30.16,East,91,7.0,22.0,82,0.00,,,0.00,weatherlink.com 1.10,2013-02-21 22:06:00,
2013-02-21 16:21:00,26.7,22.0,30.16,ENE,71,11.0,23.0,82,0.00,,,0.00,weatherlink.com 1.10,2013-02-21 22:21:00,
2013-02-21 16:36:00,26.6,22.0,30.16,ESE,115,8.0,24.0,83,0.00,,,0.00,weatherlink.com 1.10,2013-02-21 22:36:00,
2013-02-21 16:51:00,26.6,22.0,30.18,ENE,64,10.0,21.0,83,0.00,,,0.00,weatherlink.com 1.10,2013-02-21 22:51:00,
2013-02-21 17:06:00,26.8,23.0,30.17,East,86,11.0,19.0,84,0.00,,,0.00,weatherlink.com 1.10,2013-02-21 23:06:00,
2013-02-21 17:21:00,26.3,23.0,30.14,East,90,15.0,17.0,87,0.00,,,0.00,weatherlink.com 1.10,2013-02-21 23:21:00,
2013-02-21 17:36:00,25.7,23.0,30.12,East,83,15.0,24.0,90,0.00,,,0.00,weatherlink.com 1.10,2013-02-21 23:36:00,
2013-02-21 17:51:00,25.5,23.0,30.12,East,94,13.0,22.0,91,0.00,,,0.00,weatherlink.com 1.10,2013-02-21 23:51:00,
2013-02-21 18:06:00,25.3,23.0,30.11,East,80,16.0,23.0,92,0.00,,,0.00,weatherlink.com 1.10,2013-02-22 00:06:00,
2013-02-21 18:21:00,25.1,23.0,30.09,ENE,61,12.0,27.0,93,0.00,,,0.00,weatherlink.com 1.10,2013-02-22 00:21:00,
2013-02-21 18:36:00,24.8,23.0,30.07,East,90,19.0,33.0,93,0.00,,,0.00,weatherlink.com 1.10,2013-02-22 00:36:00,
2013-02-21 18:51:00,24.8,23.0,30.05,East,82,20.0,27.0,94,0.00,,,0.00,weatherlink.com 1.10,2013-02-22 00:51:00,
2013-02-21 19:06:00,24.7,23.0,30.04,ENE,76,10.0,30.0,94,0.00,,,0.00,weatherlink.com 1.10,2013-02-22 01:06:00,
2013-02-21 19:21:00,24.7,23.0,30.01,East,94,19.0,27.0,94,0.00,,,0.00,weatherlink.com 1.10,2013-02-22 01:21:00,
2013-02-21 19:36:00,24.8,23.0,30.00,ESE,102,16.0,28.0,94,0.00,,,0.00,weatherlink.com 1.10,2013-02-22 01:36:00,
2013-02-21 19:52:00,24.9,24.0,29.99,ENE,77,23.0,28.0,94,0.00,,,0.00,weatherlink.com 1.10,2013-02-22 01:52:00,
2013-02-21 20:07:00,24.9,24.0,29.98,East,83,18.0,36.0,94,0.00,,,0.00,weatherlink.com 1.10,2013-02-22 02:07:00,
2013-02-21 20:22:00,25.0,24.0,29.98,ESE,109,13.0,33.0,94,0.00,,,0.00,weatherlink.com 1.10,2013-02-22 02:22:00,
2013-02-21 20:37:00,25.1,24.0,29.98,ESE,109,11.0,28.0,94,0.00,,,0.00,weatherlink.com 1.10,2013-02-22 02:37:00,
2013-02-21 20:52:00,25.1,24.0,29.97,ENE,59,12.0,28.0,94,0.00,,,0.00,weatherlink.com 1.10,2013-02-22 02:52:00,
2013-02-21 21:07:00,25.2,24.0,29.98,East,82,16.0,28.0,94,0.00,,,0.00,weatherlink.com 1.10,2013-02-22 03:07:00,
2013-02-21 21:22:00,25.2,24.0,29.97,East,80,13.0,25.0,94,0.00,,,0.00,weatherlink.com 1.10,2013-02-22 03:22:00,
2013-02-21 21:37:00,25.2,24.0,29.98,ESE,113,12.0,25.0,94,0.00,,,0.00,weatherlink.com 1.10,2013-02-22 03:37:00,
2013-02-21 21:52:00,25.3,24.0,29.96,East,86,15.0,23.0,94,0.00,,,0.00,weatherlink.com 1.10,2013-02-22 03:52:00,
2013-02-21 22:07:00,25.3,24.0,29.96,East,96,25.0,29.0,94,0.00,,,0.00,weatherlink.com 1.10,2013-02-22 04:07:00,
2013-02-21 22:22:00,25.4,24.0,29.95,ESE,117,16.0,28.0,94,0.00,,,0.00,weatherlink.com 1.10,2013-02-22 04:22:00,
2013-02-21 22:37:00,25.6,24.0,29.95,ESE,119,16.0,29.0,94,0.00,,,0.00,weatherlink.com 1.10,2013-02-22 04:37:00,
2013-02-21 22:52:00,25.9,24.0,29.95,ENE,65,12.0,24.0,94,0.00,,,0.00,weatherlink.com 1.10,2013-02-22 04:52:00,
2013-02-21 23:07:00,26.2,25.0,29.95,East,93,17.0,21.0,95,0.00,,,0.00,weatherlink.com 1.10,2013-02-22 05:07:00,
2013-02-21 23:22:00,26.7,26.0,29.94,East,86,11.0,21.0,95,0.00,,,0.00,weatherlink.com 1.10,2013-02-22 05:22:00,
2013-02-21 23:37:00,27.2,26.0,29.92,East,94,11.0,26.0,95,0.00,,,0.00,weatherlink.com 1.10,2013-02-22 05:37:00,
2013-02-21 23:52:00,27.5,26.0,29.91,East,84,18.0,19.0,95,0.00,,,0.00,weatherlink.com 1.10,2013-02-22 05:52:00,